| time (UTC) | temp F | wind direction | speed MPH | gust MPH | rain 1hr in | rain 24hr in | rain mn in | humidity % | barometer mb |
| 20260509042704 | 80 | 330 | 5.0 | 12.0 | 0.00 | 0.00 | 0.00 | 65 | 1003.7 |
| 20260509041703 | 81 | 350 | 5.0 | 12.0 | 0.00 | 0.00 | 0.00 | 65 | 1003.8 |
| 20260509040703 | 81 | 340 | 4.0 | 12.0 | 0.00 | 0.00 | 0.00 | 65 | 1004.0 |
| 20260509035704 | 79 | 330 | 5.0 | 12.0 | 0.00 | 0.00 | 0.00 | 66 | 1004.2 |
| 20260509034703 | 80 | 310 | 5.0 | 12.0 | 0.00 | 0.00 | 0.00 | 66 | 1004.2 |
| 20260509033703 | 79 | 320 | 4.0 | 12.0 | 0.00 | 0.00 | 0.00 | 68 | 1004.4 |
| 20260509032703 | 78 | 0 | 5.0 | 12.0 | 0.00 | 0.00 | 0.00 | 69 | 1004.6 |
| 20260509031704 | 79 | 350 | 6.0 | 12.0 | 0.00 | 0.00 | 0.00 | 67 | 1004.7 |
| 20260509030703 | 79 | 0 | 5.0 | 12.0 | 0.00 | 0.00 | 0.00 | 67 | 1004.7 |
| 20260509025704 | 78 | 330 | 4.0 | 12.0 | 0.00 | 0.00 | 0.00 | 69 | 1004.8 |
| 20260509024703 | 78 | 320 | 5.0 | 12.0 | 0.00 | 0.00 | 0.00 | 68 | 1004.9 |
| 20260509023704 | 79 | 330 | 4.0 | 12.0 | 0.00 | 0.00 | 0.00 | 69 | 1005.0 |
| 20260509022704 | 77 | 320 | 4.0 | 12.0 | 0.00 | 0.00 | 0.00 | 71 | 1004.9 |
| 20260509021704 | 77 | 320 | 4.0 | 12.0 | 0.00 | 0.00 | 0.00 | 70 | 1005.1 |
| 20260509020703 | 78 | 350 | 4.0 | 11.0 | 0.00 | 0.00 | 0.00 | 70 | 1005.2 |
| 20260509015704 | 76 | 340 | 5.0 | 11.0 | 0.00 | 0.00 | 0.00 | 74 | 1005.3 |
| 20260509014704 | 75 | 330 | 4.0 | 11.0 | 0.00 | 0.00 | 0.00 | 73 | 1005.2 |
| 20260509013703 | 76 | 350 | 1.0 | 11.0 | 0.00 | 0.00 | 0.00 | 73 | 1005.1 |
| 20260509012703 | 74 | 350 | 5.0 | 11.0 | 0.00 | 0.00 | 0.00 | 74 | 1005.0 |
| 20260509011704 | 74 | 0 | 4.0 | 11.0 | 0.00 | 0.00 | 0.00 | 74 | 1005.1 |
| 20260509010704 | 74 | 0 | 4.0 | 9.0 | 0.00 | 0.00 | 0.00 | 74 | 1005.2 |
| 20260509005703 | 74 | 350 | 4.0 | 9.0 | 0.00 | 0.00 | 0.00 | 75 | 1005.2 |
| 20260509004703 | 74 | 350 | 4.0 | 9.0 | 0.00 | 0.00 | 0.00 | 76 | 1005.2 |
| 20260509003703 | 74 | 10 | 4.0 | 9.0 | 0.00 | 0.00 | 0.00 | 75 | 1005.0 |
| 20260509002704 | 74 | 330 | 2.0 | 9.0 | 0.00 | 0.00 | 0.00 | 76 | 1004.9 |
| 20260509001703 | 74 | 340 | 2.0 | 9.0 | 0.00 | 0.00 | 0.00 | 76 | 1004.8 |
| 20260509000704 | 73 | 330 | 3.0 | 11.0 | 0.00 | 0.00 | 0.00 | 76 | 1004.7 |
| 20260508235704 | 73 | 330 | 3.0 | 11.0 | 0.00 | 0.00 | 0.00 | 77 | 1004.6 |
| 20260508234703 | 73 | 350 | 3.0 | 11.0 | 0.00 | 0.00 | 0.00 | 78 | 1004.5 |
| 20260508233703 | 73 | 340 | 3.0 | 11.0 | 0.00 | 0.00 | 0.00 | 78 | 1004.6 |
| 20260508232703 | 73 | 0 | 3.0 | 11.0 | 0.00 | 0.00 | 0.00 | 79 | 1004.5 |
| 20260508231703 | 72 | 20 | 4.0 | 11.0 | 0.00 | 0.00 | 0.00 | 79 | 1004.4 |
| 20260508230703 | 72 | 20 | 3.0 | 11.0 | 0.00 | 0.00 | 0.00 | 80 | 1004.3 |
| 20260508225703 | 72 | 10 | 4.0 | 11.0 | 0.00 | 0.00 | 0.00 | 80 | 1004.4 |
| 20260508224703 | 72 | 10 | 4.0 | 11.0 | 0.00 | 0.00 | 0.00 | 80 | 1004.5 |
| 20260508223703 | 72 | 0 | 5.0 | 11.0 | 0.00 | 0.00 | 0.00 | 80 | 1004.4 |
| 20260508222704 | 72 | 350 | 5.0 | 11.0 | 0.00 | 0.00 | 0.00 | 80 | 1004.3 |
| 20260508221704 | 72 | 0 | 3.0 | 11.0 | 0.00 | 0.00 | 0.00 | 80 | 1004.1 |
| 20260508220703 | 72 | 340 | 2.0 | 13.0 | 0.00 | 0.00 | 0.00 | 80 | 1004.0 |
| 20260508215703 | 72 | 330 | 4.0 | 13.0 | 0.00 | 0.00 | 0.00 | 79 | 1004.1 |
| 20260508214703 | 72 | 350 | 2.0 | 13.0 | 0.00 | 0.00 | 0.00 | 79 | 1003.8 |
| 20260508213703 | 72 | 10 | 2.0 | 13.0 | 0.00 | 0.00 | 0.00 | 80 | 1003.7 |
| 20260508212703 | 72 | 20 | 4.0 | 13.0 | 0.00 | 0.00 | 0.00 | 80 | 1003.6 |
| 20260508211704 | 72 | 0 | 6.0 | 13.0 | 0.00 | 0.00 | 0.00 | 80 | 1003.6 |
| 20260508210703 | 72 | 10 | 3.0 | 11.0 | 0.00 | 0.00 | 0.00 | 80 | 1003.6 |
| 20260508205703 | 71 | 10 | 3.0 | 11.0 | 0.00 | 0.00 | 0.00 | 81 | 1003.6 |
| 20260508204703 | 71 | 0 | 5.0 | 11.0 | 0.00 | 0.00 | 0.00 | 81 | 1003.4 |
| 20260508203703 | 71 | 10 | 6.0 | 11.0 | 0.00 | 0.00 | 0.00 | 82 | 1003.3 |
| 20260508202703 | 71 | 350 | 5.0 | 11.0 | 0.00 | 0.00 | 0.00 | 83 | 1003.4 |
| 20260508201703 | 72 | 0 | 4.0 | 11.0 | 0.00 | 0.00 | 0.00 | 82 | 1003.3 |
| 20260508200705 | 72 | 350 | 4.0 | 13.0 | 0.00 | 0.00 | 0.00 | 80 | 1003.2 |
| 20260508195703 | 72 | 350 | 3.0 | 13.0 | 0.00 | 0.00 | 0.00 | 79 | 1003.1 |
| 20260508194703 | 72 | 0 | 4.0 | 13.0 | 0.00 | 0.00 | 0.00 | 79 | 1003.1 |
| 20260508193703 | 72 | 20 | 2.0 | 13.0 | 0.00 | 0.00 | 0.00 | 78 | 1003.2 |
| 20260508192703 | 72 | 350 | 4.0 | 13.0 | 0.00 | 0.00 | 0.00 | 79 | 1003.3 |
| 20260508191704 | 72 | 340 | 5.0 | 13.0 | 0.00 | 0.00 | 0.00 | 78 | 1003.2 |
| 20260508190703 | 73 | 320 | 4.0 | 11.0 | 0.00 | 0.00 | 0.00 | 78 | 1003.1 |
| 20260508185703 | 73 | 330 | 2.0 | 11.0 | 0.00 | 0.00 | 0.00 | 77 | 1003.0 |
| 20260508184703 | 73 | 320 | 2.0 | 11.0 | 0.00 | 0.00 | 0.00 | 78 | 1003.0 |
| 20260508183703 | 73 | 320 | 2.0 | 11.0 | 0.00 | 0.00 | 0.00 | 77 | 1003.1 |
| 20260508182703 | 73 | 320 | 1.0 | 11.0 | 0.00 | 0.00 | 0.00 | 77 | 1003.2 |
| 20260508181703 | 73 | 330 | 2.0 | 11.0 | 0.00 | 0.00 | 0.00 | 77 | 1003.1 |
| 20260508180704 | 73 | 350 | 4.0 | 11.0 | 0.00 | 0.00 | 0.00 | 77 | 1003.1 |
| 20260508175703 | 73 | 10 | 4.0 | 11.0 | 0.00 | 0.00 | 0.00 | 77 | 1003.2 |
| 20260508174704 | 73 | 0 | 4.0 | 11.0 | 0.00 | 0.00 | 0.00 | 77 | 1003.2 |
| 20260508173703 | 73 | 0 | 3.0 | 11.0 | 0.00 | 0.00 | 0.00 | 77 | 1003.4 |
| 20260508172703 | 73 | 350 | 4.0 | 11.0 | 0.00 | 0.00 | 0.00 | 77 | 1003.4 |
| 20260508171703 | 73 | 350 | 4.0 | 11.0 | 0.00 | 0.00 | 0.00 | 76 | 1003.6 |
| 20260508170704 | 73 | 0 | 5.0 | 12.0 | 0.00 | 0.00 | 0.00 | 77 | 1003.5 |
| 20260508165703 | 73 | 340 | 4.0 | 12.0 | 0.00 | 0.00 | 0.00 | 77 | 1003.7 |
| 20260508164704 | 74 | 350 | 3.0 | 12.0 | 0.00 | 0.00 | 0.00 | 76 | 1003.7 |
| 20260508163704 | 73 | 320 | 3.0 | 12.0 | 0.00 | 0.00 | 0.00 | 76 | 1003.7 |
| 20260508162703 | 74 | 330 | 4.0 | 12.0 | 0.00 | 0.00 | 0.00 | 76 | 1003.8 |
| 20260508161704 | 74 | 0 | 3.0 | 12.0 | 0.00 | 0.00 | 0.00 | 76 | 1003.8 |
| 20260508160704 | 73 | 350 | 5.0 | 10.0 | 0.00 | 0.00 | 0.00 | 77 | 1003.8 |
| 20260508155703 | 74 | 340 | 3.0 | 10.0 | 0.00 | 0.00 | 0.00 | 77 | 1003.9 |
| 20260508154704 | 73 | 350 | 2.0 | 10.0 | 0.00 | 0.00 | 0.00 | 77 | 1004.0 |
| 20260508153703 | 74 | 0 | 6.0 | 10.0 | 0.00 | 0.00 | 0.00 | 77 | 1004.1 |
| 20260508152703 | 74 | 0 | 5.0 | 10.0 | 0.00 | 0.00 | 0.00 | 76 | 1004.1 |
| 20260508151704 | 74 | 10 | 4.0 | 10.0 | 0.00 | 0.00 | 0.00 | 76 | 1004.1 |
| 20260508150704 | 74 | 340 | 3.0 | 11.0 | 0.00 | 0.00 | 0.00 | 75 | 1004.2 |
| 20260508145704 | 75 | 320 | 3.0 | 11.0 | 0.00 | 0.00 | 0.00 | 75 | 1004.2 |
| 20260508144703 | 75 | 320 | 3.0 | 11.0 | 0.00 | 0.00 | 0.00 | 75 | 1004.1 |
| 20260508143704 | 75 | 0 | 2.0 | 11.0 | 0.00 | 0.00 | 0.00 | 75 | 1003.9 |
| 20260508142704 | 75 | 10 | 4.0 | 11.0 | 0.00 | 0.00 | 0.00 | 76 | 1003.8 |
| 20260508141704 | 75 | 350 | 5.0 | 11.0 | 0.00 | 0.00 | 0.00 | 76 | 1003.8 |
| 20260508140703 | 75 | 350 | 4.0 | 13.0 | 0.00 | 0.00 | 0.00 | 75 | 1003.7 |
| 20260508135704 | 75 | 330 | 4.0 | 13.0 | 0.00 | 0.00 | 0.00 | 75 | 1003.7 |
| 20260508134704 | 76 | 10 | 3.0 | 13.0 | 0.00 | 0.00 | 0.00 | 75 | 1003.5 |
| 20260508133703 | 76 | 0 | 3.0 | 13.0 | 0.00 | 0.00 | 0.00 | 75 | 1003.4 |
| 20260508132704 | 76 | 350 | 3.0 | 13.0 | 0.00 | 0.00 | 0.00 | 74 | 1003.4 |
| 20260508131703 | 76 | 340 | 4.0 | 13.0 | 0.00 | 0.00 | 0.00 | 74 | 1003.2 |
| 20260508130703 | 76 | 10 | 5.0 | 14.0 | 0.00 | 0.00 | 0.00 | 74 | 1003.2 |
| 20260508125703 | 76 | 340 | 6.0 | 14.0 | 0.00 | 0.00 | 0.00 | 74 | 1003.0 |
| 20260508124704 | 77 | 340 | 4.0 | 14.0 | 0.00 | 0.00 | 0.00 | 74 | 1002.9 |
| 20260508123703 | 77 | 0 | 5.0 | 14.0 | 0.00 | 0.00 | 0.00 | 74 | 1002.8 |
| 20260508122704 | 77 | 10 | 4.0 | 14.0 | 0.00 | 0.00 | 0.00 | 74 | 1002.8 |
| 20260508121704 | 77 | 0 | 5.0 | 14.0 | 0.00 | 0.00 | 0.00 | 74 | 1002.8 |
| 20260508120703 | 77 | 340 | 6.0 | 15.0 | 0.00 | 0.00 | 0.00 | 74 | 1002.6 |
| 20260508115703 | 77 | 350 | 4.0 | 15.0 | 0.00 | 0.00 | 0.00 | 73 | 1002.4 |
| 20260508114704 | 78 | 350 | 5.0 | 15.0 | 0.00 | 0.00 | 0.00 | 73 | 1002.3 |
| 20260508113704 | 78 | 0 | 5.0 | 15.0 | 0.00 | 0.00 | 0.00 | 72 | 1002.3 |
| 20260508112704 | 78 | 10 | 6.0 | 15.0 | 0.00 | 0.00 | 0.00 | 71 | 1002.2 |
| 20260508111704 | 79 | 350 | 7.0 | 15.0 | 0.00 | 0.00 | 0.00 | 71 | 1002.2 |
| 20260508110704 | 79 | 350 | 7.0 | 18.0 | 0.00 | 0.00 | 0.00 | 71 | 1001.9 |
| 20260508105704 | 80 | 10 | 5.0 | 18.0 | 0.00 | 0.00 | 0.00 | 70 | 1001.8 |
| 20260508104704 | 80 | 350 | 5.0 | 18.0 | 0.00 | 0.00 | 0.00 | 70 | 1001.8 |
| 20260508103703 | 80 | 0 | 5.0 | 18.0 | 0.00 | 0.00 | 0.00 | 69 | 1001.7 |
| 20260508102704 | 80 | 0 | 5.0 | 18.0 | 0.00 | 0.00 | 0.00 | 70 | 1001.7 |
| 20260508101703 | 80 | 0 | 6.0 | 18.0 | 0.00 | 0.00 | 0.00 | 69 | 1001.7 |
| 20260508100703 | 81 | 350 | 5.0 | 15.0 | 0.00 | 0.00 | 0.00 | 68 | 1001.5 |
| 20260508095704 | 82 | 0 | 7.0 | 15.0 | 0.00 | 0.00 | 0.00 | 68 | 1001.3 |
| 20260508094704 | 82 | 350 | 6.0 | 15.0 | 0.00 | 0.00 | 0.00 | 67 | 1001.3 |
| 20260508093703 | 82 | 0 | 7.0 | 15.0 | 0.00 | 0.00 | 0.00 | 66 | 1001.3 |
| 20260508092703 | 83 | 0 | 5.0 | 15.0 | 0.00 | 0.00 | 0.00 | 65 | 1001.1 |
| 20260508091703 | 84 | 0 | 5.0 | 15.0 | 0.00 | 0.00 | 0.00 | 64 | 1001.0 |
| 20260508090703 | 84 | 0 | 7.0 | 17.0 | 0.00 | 0.00 | 0.00 | 64 | 1001.0 |
| 20260508085704 | 84 | 340 | 6.0 | 17.0 | 0.00 | 0.00 | 0.00 | 66 | 1000.8 |
| 20260508084704 | 85 | 0 | 6.0 | 17.0 | 0.00 | 0.00 | 0.00 | 63 | 1000.8 |
| 20260508083703 | 86 | 10 | 5.0 | 17.0 | 0.00 | 0.00 | 0.00 | 61 | 1000.8 |
| 20260508082704 | 86 | 350 | 5.0 | 17.0 | 0.00 | 0.00 | 0.00 | 61 | 1000.6 |
| 20260508081703 | 85 | 330 | 5.0 | 17.0 | 0.00 | 0.00 | 0.00 | 58 | 1000.5 |
| 20260508080704 | 85 | 320 | 5.0 | 15.0 | 0.00 | 0.00 | 0.00 | 58 | 1000.7 |
| 20260508075704 | 86 | 340 | 5.0 | 0.0 | 0.00 | 0.00 | 0.00 | 58 | 1000.8 |
| 20260508064703 | 88 | 10 | 7.0 | 15.0 | 0.00 | 0.00 | 0.00 | 59 | 1001.0 |
| 20260508063703 | 88 | 10 | 6.0 | 15.0 | 0.00 | 0.00 | 0.00 | 60 | 1001.1 |
| 20260508062703 | 88 | 0 | 5.0 | 15.0 | 0.00 | 0.00 | 0.00 | 63 | 1001.2 |
| 20260508061704 | 87 | 340 | 3.0 | 15.0 | 0.00 | 0.00 | 0.00 | 63 | 1001.3 |
| 20260508060704 | 87 | 330 | 6.0 | 13.0 | 0.00 | 0.00 | 0.00 | 62 | 1001.3 |
| 20260508055704 | 87 | 310 | 5.0 | 13.0 | 0.00 | 0.00 | 0.00 | 58 | 1001.4 |
| 20260508054705 | 87 | 290 | 5.0 | 13.0 | 0.00 | 0.00 | 0.00 | 58 | 1001.6 |
| 20260508053703 | 87 | 330 | 4.0 | 13.0 | 0.00 | 0.00 | 0.00 | 58 | 1001.8 |
| 20260508052703 | 89 | 320 | 4.0 | 13.0 | 0.00 | 0.00 | 0.00 | 54 | 1001.9 |
| 20260508051704 | 87 | 280 | 5.0 | 13.0 | 0.00 | 0.00 | 0.00 | 59 | 1002.1 |
| 20260508050704 | 88 | 320 | 4.0 | 12.0 | 0.00 | 0.00 | 0.00 | 57 | 1002.1 |
| 20260508045703 | 87 | 340 | 4.0 | 12.0 | 0.00 | 0.00 | 0.00 | 55 | 1002.1 |
| 20260508044703 | 88 | 340 | 2.0 | 12.0 | 0.00 | 0.00 | 0.00 | 54 | 1002.2 |
| 20260508043704 | 88 | 30 | 5.0 | 12.0 | 0.00 | 0.00 | 0.00 | 56 | 1002.3 |